Weather History for La Junta, CO

Change the Weather History Date:

Wednesday, February 6, 2013

  Actual Average Record
Temperature  
Mean Temperature 45 °F 33 °F  
Max Temperature 67 °F 47 °F 69 °F (1950)
Min Temperature 22 °F 19 °F -16 °F (1982)
Degree Days  
Heating Degree Days 20 32  
Month to date heating degree days 150 197  
Since 1 July heating degree days 3095 3454  
Cooling Degree Days 0 0  
Month to date cooling degree days 0 0  
Year to date cooling degree days 0 0  
Moisture  
Dew Point 18 °F    
Average Humidity 40    
Maximum Humidity 65    
Minimum Humidity 15    
Precipitation  
Precipitation 0.00 in 0.01 in 0.12 in (1997)
Month to date precipitation 0.00 0.07  
Year to date precipitation 0.02 0.36  
Sea Level Pressure  
Sea Level Pressure 29.80 in    
Wind  
Wind Speed 12 mph (NNW)    
Max Wind Speed 28 mph    
Max Gust Speed 37 mph    
Visibility 10 miles    
Events      
T = Trace of Precipitation, MM = Missing Value Source: NWS Daily Summary

Daily Weather History Graph

Daily Weather History Graph

Search for Another Location

Airport:

Trip Planner

Search our weather history database for the weather conditions in past years. The results will help you decide how hot, cold, wet, or windy it might be!

Date:

Astronomy

Feb. 06, 2013 Rise Set
Actual Time 6:53 AM MST 5:23 PM MST
Civil Twilight 6:26 AM MST 5:50 PM MST
Nautical Twilight 5:54 AM MST 6:21 PM MST
Astronomical Twilight 5:24 AM MST 6:52 PM MST
Moon 3:37 AM MST (2/6) 1:45 PM MST (2/6)
Length of Visible Light 11h 24m
Length of Day
10h 29m
Waning Crescent, 16% of the Moon is Illuminated
Feb 6
Waning Crescent
Feb 10
New
Feb 17
First Quarter
Feb 25
Full
Mar 4
Last Quarter

Hourly Weather History & Observations

Time (MST) Temp. Windchill Dew Point Humidity Pressure Visibility Wind Dir Wind Speed Gust Speed Precip Events Conditions
12:53 AM 33.1 °F - 15.1 °F 48% 29.84 in 10.0 mi Calm Calm - N/A   Clear
1:53 AM 35.1 °F 27.9 °F 15.1 °F 44% 29.81 in 10.0 mi SSW 9.2 mph - N/A   Clear
2:53 AM 36.0 °F 27.5 °F 16.0 °F 44% 29.78 in 10.0 mi SW 12.7 mph - N/A   Clear
3:53 AM 28.0 °F 21.7 °F 12.9 °F 53% 29.80 in 10.0 mi SW 5.8 mph - N/A   Clear
4:53 AM 27.0 °F 18.0 °F 12.9 °F 56% 29.80 in 10.0 mi West 9.2 mph - N/A   Clear
5:53 AM 25.0 °F 14.2 °F 12.9 °F 60% 29.81 in 10.0 mi West 11.5 mph - N/A   Clear
6:53 AM 23.0 °F 12.4 °F 12.0 °F 63% 29.82 in 10.0 mi WNW 10.4 mph - N/A   Clear
7:53 AM 27.0 °F 18.0 °F 12.9 °F 56% 29.81 in 10.0 mi West 9.2 mph - N/A   Clear
8:53 AM 33.1 °F 25.5 °F 15.1 °F 48% 29.81 in 10.0 mi WNW 9.2 mph - N/A   Clear
9:53 AM 39.9 °F 37.8 °F 17.1 °F 40% 29.79 in 10.0 mi West 3.5 mph - N/A   Clear
10:53 AM 48.9 °F - 16.0 °F 27% 29.75 in 10.0 mi WNW 8.1 mph - N/A   Clear
11:53 AM 57.9 °F - 17.1 °F 20% 29.71 in 10.0 mi NW 4.6 mph - N/A   Clear
12:53 PM 63.0 °F - 17.1 °F 17% 29.68 in 10.0 mi North 9.2 mph - N/A   Clear
1:53 PM 64.9 °F - 18.0 °F 16% 29.65 in 10.0 mi NE 3.5 mph - N/A   Clear
2:53 PM 66.0 °F - 18.0 °F 16% 29.64 in 10.0 mi East 15.0 mph 19.6 mph N/A   Clear
3:53 PM 64.0 °F - 19.9 °F 18% 29.68 in 10.0 mi ENE 20.7 mph 27.6 mph N/A   Clear
4:53 PM 57.9 °F - 19.0 °F 22% 29.73 in 10.0 mi ENE 12.7 mph - N/A   Clear
5:53 PM 53.1 °F - 17.1 °F 24% 29.79 in 10.0 mi NE 10.4 mph - N/A   Clear
6:53 PM 51.1 °F - 18.0 °F 27% 29.86 in 10.0 mi North 17.3 mph - N/A   Scattered Clouds
7:53 PM 46.9 °F - 19.0 °F 33% 29.88 in 10.0 mi North 11.5 mph - N/A   Clear
8:53 PM 48.9 °F - 21.0 °F 33% 29.89 in 10.0 mi North 13.8 mph - N/A   Overcast
9:53 PM 46.9 °F - 28.9 °F 50% 29.91 in 10.0 mi North 26.5 mph 33.4 mph N/A   Overcast
10:53 PM 45.0 °F 36.9 °F 28.9 °F 53% 29.93 in 10.0 mi North 20.7 mph 28.8 mph N/A   Overcast
11:53 PM 44.1 °F 34.4 °F 28.9 °F 55% 29.94 in 10.0 mi North 27.6 mph 33.4 mph N/A   Overcast